TimeCDT,TemperatureF,Dew PointF,Humidity,Sea Level PressureIn,VisibilityMPH,Wind Direction,Wind SpeedMPH,Gust SpeedMPH,PrecipitationIn,Events,Conditions,WindDirDegrees,DateUTC
12:53 AM,66.0,54.0,65,29.76,10.0,ENE,5.8,-,N/A,,Clear,60,2013-09-29 05:53:00
1:53 AM,64.9,54.0,68,29.75,10.0,NE,5.8,-,N/A,,Clear,50,2013-09-29 06:53:00
2:53 AM,64.0,55.0,73,29.74,10.0,ENE,5.8,-,N/A,,Clear,60,2013-09-29 07:53:00
3:53 AM,61.0,55.0,81,29.73,10.0,North,4.6,-,N/A,,Clear,10,2013-09-29 08:53:00
4:53 AM,62.1,55.0,78,29.74,10.0,NE,4.6,-,N/A,,Clear,40,2013-09-29 09:53:00
5:53 AM,61.0,55.0,81,29.74,10.0,NE,4.6,-,N/A,,Clear,50,2013-09-29 10:53:00
6:53 AM,60.1,55.9,86,29.75,10.0,ENE,4.6,-,N/A,,Clear,70,2013-09-29 11:53:00
7:53 AM,63.0,55.9,78,29.76,10.0,ENE,5.8,-,N/A,,Clear,70,2013-09-29 12:53:00
8:53 AM,68.0,59.0,73,29.76,10.0,East,5.8,-,N/A,,Clear,90,2013-09-29 13:53:00
9:53 AM,73.0,61.0,66,29.76,10.0,Variable,5.8,-,N/A,,Clear,0,2013-09-29 14:53:00
10:53 AM,75.9,61.0,60,29.75,10.0,ENE,5.8,-,N/A,,Clear,70,2013-09-29 15:53:00
11:53 AM,78.1,61.0,56,29.74,10.0,ENE,5.8,-,N/A,,Clear,70,2013-09-29 16:53:00
12:53 PM,80.1,59.0,48,29.71,10.0,NNE,4.6,-,N/A,,Mostly Cloudy,30,2013-09-29 17:53:00
1:53 PM,80.1,59.0,48,29.68,10.0,Calm,Calm,-,N/A,,Scattered Clouds,0,2013-09-29 18:53:00
2:53 PM,82.0,57.9,44,29.66,10.0,NE,5.8,-,N/A,,Partly Cloudy,40,2013-09-29 19:53:00
3:53 PM,80.1,57.9,47,29.65,10.0,NNE,6.9,-,N/A,,Clear,20,2013-09-29 20:53:00
4:53 PM,79.0,60.1,52,29.66,10.0,NNE,9.2,-,N/A,,Clear,20,2013-09-29 21:53:00
5:53 PM,77.0,61.0,58,29.66,10.0,NNE,5.8,-,N/A,,Clear,30,2013-09-29 22:53:00
6:53 PM,73.0,63.0,71,29.67,10.0,North,3.5,-,N/A,,Clear,10,2013-09-29 23:53:00
7:53 PM,73.0,62.1,68,29.68,10.0,NNE,3.5,-,N/A,,Clear,20,2013-09-30 00:53:00
8:53 PM,72.0,62.1,71,29.69,10.0,NNE,3.5,-,N/A,,Clear,20,2013-09-30 01:53:00
9:53 PM,70.0,61.0,73,29.69,10.0,East,3.5,-,N/A,,Clear,80,2013-09-30 02:53:00
10:53 PM,70.0,61.0,73,29.68,10.0,NE,4.6,-,N/A,,Clear,50,2013-09-30 03:53:00
11:53 PM,66.0,61.0,84,29.67,10.0,Calm,Calm,-,N/A,,Clear,0,2013-09-30 04:53:00